Regional Weather Roundup
Issued by NWS

Home | Current Version | Previous Version | Graphics & Text | Print | Product List | Glossary On
Versions: 1 2 3 4 5 6 7 8 9 10 11 12 13 14 15 16 17 18 19 20 21 22 23 24 25 26 27 28 29 30 31 32 33 34 35 36 37 38 39 40 41 42 43 44 45 46 47 48 49 50
000
ASUS43 KMKX 180411
RWRWI

WISCONSIN REGIONAL WEATHER ROUNDUP
NATIONAL WEATHER SERVICE MILWAUKEE/SULLIVAN WI
1000 PM CST FRI NOV 17 2017

NOTE: "FAIR" INDICATES FEW OR NO CLOUDS BELOW 12,000 FEET WITH NO
SIGNIFICANT WEATHER AND/OR OBSTRUCTIONS TO VISIBILITY.

WIZ001-002-006>008-014>016-023>028-180500-
NORTHWEST WISCONSIN

CITY           SKY/WX    TMP DP  RH WIND       PRES   REMARKS
SUPERIOR ARPT  CLOUDY    31  31 100 CALM      29.67F FOG
ASHLAND        CLOUDY    33  32  96 CALM      29.66S FOG
HAYWARD        CLOUDY    33  32  96 CALM      29.66R FOG
SIREN          CLOUDY    34  33  99 CALM      29.67S FOG
CUMBERLAND     CLOUDY    32  32 100 N9        29.65R FOG     WCI  24
RICE LAKE      FOG       34  34 100 N5        29.65S VSB 3/4 WCI  30
CHETEK         CLOUDY    34  34 100 CALM      29.64R FOG
LADYSMITH      CLOUDY    34  34  99 NW5       29.65R FOG     WCI  30
EAU CLAIRE     CLOUDY    36  35  96 N5        29.63S FOG     WCI  32
MENOMONIE      CLOUDY    36  36 100 NW3       29.65S FOG
NEW RICHMOND   CLOUDY    35  35 100 N5        29.65R FOG     WCI  31
OSCEOLA        CLOUDY    36  36 100 N5        29.69R FOG     WCI  32
$$

WIZ003>005-009-010-017-018-180500-
NORTH CENTRAL WISCONSIN

CITY           SKY/WX    TMP DP  RH WIND       PRES   REMARKS
MANITOWISH WTR CLOUDY    32  32 100 CALM      29.60R
ARBOR VITAE    CLOUDY    34  33  96 N3        29.59R
WOODRUFF       CLOUDY    34  33  96 N3        29.59R
RHINELANDER    CLOUDY    33  33 100 CALM      29.59F FOG
EAGLE RIVER    CLOUDY    32  32 100 CALM      29.58S FOG
LAND O LAKES   CLOUDY    33  33 100 CALM      29.60S
PHILLIPS       CLOUDY    32  32 100 CALM      29.61R FOG
TOMAHAWK       CLOUDY    32  31  98 CALM      29.61R FOG
MEDFORD        FOG       32  32  99 NW6       29.61R VSB 1/2 WCI  27
MERRILL        CLOUDY    33  33 100 CALM      29.61R FOG
$$

WIZ029-030-035-036-043>047-180500-
CENTRAL WISCONSIN

CITY           SKY/WX    TMP DP  RH WIND       PRES   REMARKS
WAUSAU         CLOUDY    34  33  96 N3        29.59S FOG
MOSINEE        FOG       34  34 100 CALM      29.61S VSB 3/4
MARSHFIELD     FOG       34  33  96 NW6       29.60R VSB 1/2 WCI  29
STEVENS POINT  CLOUDY    33  33 100 CALM      29.61R FOG
WAUPACA        CLOUDY    38  37  97 CALM      29.61S FOG
WAUTOMA        CLOUDY    36  36 100 CALM      29.61S FOG
WISC RAPIDS    CLOUDY    36  35  96 NW3       29.62S FOG
CAMP DOUGLAS   CLOUDY    37  37 100 NW3       29.62R FOG
$$

WIZ011>013-019>022-031-037>040-048>050-180500-
NORTHEAST WISCONSIN

CITY           SKY/WX    TMP DP  RH WIND       PRES   REMARKS
ANTIGO         CLOUDY    32  32 100 CALM      29.58F FOG
SHAWANO        CLOUDY    37  36  94 CALM      29.61F FOG
OCONTO         CLOUDY    37  37 100 CALM      29.60F
STURGEON BAY   LGT RAIN  38  37  97 CALM      29.60F FOG
GREEN BAY      CLOUDY    38  38 100 CALM      29.60F FOG
MANITOWOC      LGT RAIN  39  38  96 NW3       29.61F FOG
APPLETON       LGT RAIN  37  37 100 CALM      29.58F
CLINTONVILLE   CLOUDY    36  36 100 NE5       29.60F FOG     WCI  32
OSHKOSH        CLOUDY    38  37  97 CALM      29.59F FOG
$$

WIZ032>034-041-042-053>061-180500-
SOUTHWEST WISCONSIN

CITY           SKY/WX    TMP DP  RH WIND       PRES   REMARKS
LA CROSSE      CLOUDY    39  38  96 N5        29.62F FOG
SPARTA         CLOUDY    35  35 100 CALM      29.64R FOG
VIROQUA        CLOUDY    36  36 100 CALM      29.61R VSB 1/4
BOSCOBEL       CLOUDY    41  38  89 CALM      29.62R FOG
PRAIRIE DU CHI CLOUDY    38  37  97 CALM      29.60F FOG
PLATTEVILLE    MOCLDY    40  40 100 CALM      29.58S VSB 1
$$

WIZ056-057-062-063-064-067-068-180500-
SOUTH CENTRAL WISCONSIN

CITY           SKY/WX    TMP DP  RH WIND       PRES   REMARKS
REEDSBURG      CLOUDY    37  37 100 CALM      29.60R FOG
BARABOO/DELLS  FOG       37  36  98 CALM      29.60R VSB 1
LONE ROCK      CLOUDY    38  38 100 CALM      29.61R FOG
MINERAL POINT  FOG       39  39 100 CALM      29.59S VSB 1/2
MADISON        CLOUDY    39  39 100 CALM      29.58F FOG
MIDDLETON      CLOUDY    40  40 100 CALM      29.60S
WATERTOWN      CLOUDY    38  38 100 CALM      29.59F FOG
MONROE         DRZL/FOG  37  37 100 CALM      29.58S VSB 1
JANESVILLE     DRIZZLE   41  41 100 CALM      29.58S
$$

WIZ051-052-058>065-066-070>072-180500-
SOUTHEAST WISCONSIN

CITY           SKY/WX    TMP DP  RH WIND       PRES   REMARKS
MILWAUKEE      LGT RAIN  43  42  97 CALM      29.60S FOG
WAUKESHA       DRIZZLE   37  37 100 CALM      29.61S
MILWAUKEE/TIMM DRIZZLE   39  36  87 CALM      29.61S
RACINE         LGT RAIN  43  42  97 CALM      29.61S FOG
BURLINGTON     DRIZZLE   44  44 100 CALM      29.59S
KENOSHA        LGT RAIN  45  42  89 W7        29.59S FOG
FOND DU LAC    LGT RAIN  39  37  92 CALM      29.60F FOG
SHEBOYGAN      CLOUDY    40  40 100 CALM      29.60F FOG
WEST BEND      DRIZZLE   37  37 100 CALM      29.60S
JUNEAU         FOG       37  37  99 CALM      29.60F VSB 1
$$

LSZ147-162-180500-
LAKE SUPERIOR

STATION/POSITION TIME  TEMP    WIND        PRES    WAVE
                       AIR SEA DIR/SP/G            HT/PER
                 (UTC) (F)     (DEG/KT/KT) (MB)    (FT/S)
DEVILS ISLAND    0400   37     330/ 10/ 12 1004.6S
SAXON HARBOR     0330   34     210/  4/  6 1004.1R
$$

LMZ867-665-643>646-180500-
LAKE MICHIGAN

STATION/POSITION TIME  TEMP    WIND        PRES    WAVE
                       AIR SEA DIR/SP/G            HT/PER
                 (UTC) (F)     (DEG/KT/KT) (MB)    (FT/S)
N MID LAKE BUOY  0350   42 48  250/ 16/ 21 1003.4F   8/ 9
NORTHPORT PIER   0340   40     260/  2/  6 1002.7F
SHEBOYGAN LAKESH 0400   41     220/  4/  5 1002.6F
PORT WASHINGTON  0330   41     260/  2/  3 1003.7S
MILWAUKEE LAKESH 0350   42     200/  3/  3   N/A
S MID LAKE BUOY  0350   45 50  210/ 21/ 25 1002.5F   8/ 7
KENOSHA   LAKESH 0400   44     250/  6/  9 1002.4
$$

TC  - TEMPERATURE IN CELSIUS
VSB - VISIBILITY IN STATUTE MILES
WCI - WIND CHILL INDEX
HX  - HEAT INDEX




USA.gov is the U.S. government's official web portal to all federal, state and local government web resources and services.